Flag for Canada Weather past 2 weeks in Cambridge, Ontario, Canada

Now
25 °F

Sunny.


Feels Like: 14 °F
Forecast: 11 / 37 °F
Wind: 12 mph from Northwest

Location: Waterloo Well

Current Time: Mar 28, 2015 at 8:26:35 PM

Latest Report: Mar 28, 2015 at 7:00 PM


Visibility: 9 mi

Pressure: 30.24 "Hg

Humidity: 54%

Dew point: 10 °F

Location of CambridgeLocation

Historic Weather in Cambridge — Graph

°F

Cambridge temperature yesterday

Maximum temperature yesterday: 32 °F (at 12:02 AM)
Minimum temperature yesterday: 14 °F (at 10:00 PM)
Average temperature yesterday: 24 °F

Past Weeks' High & Low Weather Summary

 TemperatureHumidityPressure
High77 °F (Mar 24, 1:00 PM)100% (Mar 14, 4:01 AM)30.40 "Hg (Mar 14, 4:01 AM)
Low10 °F (Mar 28, 5:00 AM)5% (Mar 24, 1:00 PM)29.67 "Hg (Mar 17, 2:00 AM)
Average32 °F73%30.02 "Hg
* Reported Mar 13 7:00 PM — Mar 28 7:00 PM, Cambridge, Weather by CustomWeather, © 2015

Note: Actual official high and low records may vary slightly from our data, if they occured in-between our weather recording intervals... More about our weather records

Advertising

Cambridge weather history for previous 24 hours

 ConditionsComfort  
Time TempWeatherWind HumidityBarometerVisibility
7:00 PM
Sat, Mar 28
25 °FSunny.12 mph54%30.24 "Hg9 mi
6:00 PM27 °FSunny.16 mph46%30.22 "Hg9 mi
5:00 PM28 °FSunny.21 mph40%30.20 "Hg9 mi
4:00 PM28 °FSunny.17 mph34%30.20 "Hg9 mi
3:00 PM27 °FSunny.15 mph36%30.21 "Hg9 mi
2:00 PM27 °FSunny.15 mph36%30.22 "Hg9 mi
1:00 PM25 °FSunny.15 mph42%30.22 "Hg9 mi
12:00 PM21 °FSunny.14 mph42%30.22 "Hg9 mi
11:00 AM21 °FSunny.13 mph42%30.24 "Hg9 mi
10:00 AM18 °FSunny.14 mph45%30.23 "Hg9 mi
9:00 AM14 °FSunny.14 mph52%30.21 "Hg9 mi
8:00 AM12 °FClear.9 mph62%30.19 "Hg9 mi
7:00 AM10 °FClear.8 mph67%30.17 "Hg9 mi
6:00 AM10 °FClear.10 mph67%30.14 "Hg9 mi
5:00 AM10 °FClear.8 mph67%30.12 "Hg9 mi
4:00 AM12 °FPassing clouds.8 mph67%30.11 "Hg9 mi
3:00 AM14 °FOvercast.9 mph62%30.10 "Hg9 mi
2:00 AM14 °FPassing clouds.9 mph62%30.10 "Hg9 mi
1:00 AM14 °FPassing clouds.14 mph67%30.09 "Hg9 mi
12:00 AM14 °FPassing clouds.13 mph73%30.09 "Hg9 mi
11:00 PM
Fri, Mar 27
16 °FPassing clouds.13 mph67%30.08 "Hg9 mi
10:00 PM14 °FClear.13 mph73%30.07 "Hg9 mi
9:00 PM16 °FLight snow. Passing clouds.15 mph73%30.06 "Hg9 mi
8:00 PM16 °FLight snow. Overcast.15 mph73%30.04 "Hg9 mi
Weather by CustomWeather, © 2015

See weather overviewHow to use our weather pages